TimeEDT,TemperatureF,Dew PointF,Humidity,Sea Level PressureIn,VisibilityMPH,Wind Direction,Wind SpeedMPH,Gust SpeedMPH,PrecipitationIn,Events,Conditions,WindDirDegrees,DateUTC
12:15 AM,52.5,50.0,91,30.21,5.0,Calm,Calm,-,N/A,,Clear,0,2013-10-31 04:15:00
12:35 AM,53.8,51.4,92,30.21,7.0,Calm,Calm,-,N/A,,Clear,0,2013-10-31 04:35:00
12:55 AM,52.3,50.0,92,30.21,7.0,Calm,Calm,-,N/A,,Clear,0,2013-10-31 04:55:00
1:15 AM,52.5,50.2,92,30.21,2.5,Calm,Calm,-,N/A,,Clear,0,2013-10-31 05:15:00
1:35 AM,54.1,52.0,92,30.20,5.0,Calm,Calm,-,N/A,,Clear,0,2013-10-31 05:35:00
1:55 AM,53.1,50.7,92,30.20,5.0,Calm,Calm,-,N/A,,Clear,0,2013-10-31 05:55:00
2:15 AM,51.3,48.9,92,30.19,10.0,Calm,Calm,-,N/A,,Clear,0,2013-10-31 06:15:00
2:35 AM,50.5,48.2,92,30.19,7.0,Calm,Calm,-,N/A,,Clear,0,2013-10-31 06:35:00
2:55 AM,51.4,49.1,92,30.19,7.0,Calm,Calm,-,N/A,,Clear,0,2013-10-31 06:55:00
3:15 AM,52.2,49.8,92,30.19,7.0,Calm,Calm,-,N/A,,Clear,0,2013-10-31 07:15:00
3:35 AM,51.8,49.3,91,30.20,7.0,Calm,Calm,-,N/A,,Clear,0,2013-10-31 07:35:00
3:55 AM,51.4,49.1,92,30.19,0.8,Calm,Calm,-,N/A,,Unknown,0,2013-10-31 07:55:00
4:15 AM,55.9,53.6,92,30.19,4.0,ESE,3.5,-,N/A,,Clear,120,2013-10-31 08:15:00
4:35 AM,57.0,54.9,92,30.19,5.0,Calm,Calm,-,N/A,,Scattered Clouds,0,2013-10-31 08:35:00
4:55 AM,58.5,56.3,93,30.19,7.0,Calm,Calm,-,N/A,,Mostly Cloudy,0,2013-10-31 08:55:00
5:15 AM,59.9,57.6,92,30.19,7.0,SSE,5.8,-,N/A,,Overcast,150,2013-10-31 09:15:00
5:35 AM,60.4,58.1,92,30.19,7.0,SSE,4.6,-,N/A,,Overcast,160,2013-10-31 09:35:00
5:55 AM,60.4,57.6,90,30.18,7.0,SSE,5.8,-,N/A,,Mostly Cloudy,150,2013-10-31 09:55:00
6:15 AM,60.1,57.2,90,30.17,7.0,SSE,5.8,-,N/A,,Scattered Clouds,160,2013-10-31 10:15:00
6:35 AM,60.4,57.4,90,30.18,10.0,SSE,5.8,-,N/A,,Clear,160,2013-10-31 10:35:00
6:55 AM,60.8,57.6,89,30.17,10.0,SSE,5.8,-,N/A,,Clear,160,2013-10-31 10:55:00
7:15 AM,60.4,57.2,89,30.17,7.0,SSE,5.8,-,N/A,,Clear,160,2013-10-31 11:15:00
7:35 AM,60.3,56.8,88,30.18,7.0,SSE,5.8,-,N/A,,Clear,160,2013-10-31 11:35:00
7:55 AM,60.6,57.2,88,30.18,10.0,SSE,4.6,-,N/A,,Clear,160,2013-10-31 11:55:00
8:15 AM,61.0,57.4,88,30.19,7.0,SSE,3.5,-,N/A,,Clear,160,2013-10-31 12:15:00
8:35 AM,61.9,58.1,87,30.18,7.0,SSE,5.8,-,N/A,,Scattered Clouds,150,2013-10-31 12:35:00
8:55 AM,63.7,58.6,84,30.17,10.0,SSE,6.9,-,N/A,,Scattered Clouds,150,2013-10-31 12:55:00
9:15 AM,64.8,58.3,79,30.17,10.0,SSE,6.9,-,N/A,,Clear,160,2013-10-31 13:15:00
9:35 AM,65.3,57.9,77,30.18,10.0,SSE,6.9,-,N/A,,Clear,160,2013-10-31 13:35:00
9:55 AM,65.8,58.3,77,30.18,10.0,SSE,5.8,-,N/A,,Clear,150,2013-10-31 13:55:00
10:15 AM,67.3,57.7,71,30.18,10.0,SSE,4.6,-,N/A,,Clear,160,2013-10-31 14:15:00
10:35 AM,68.2,57.6,69,30.17,10.0,South,5.8,-,N/A,,Clear,170,2013-10-31 14:35:00
10:55 AM,68.9,57.7,68,30.16,10.0,South,4.6,-,N/A,,Clear,170,2013-10-31 14:55:00
11:15 AM,69.8,57.0,64,30.15,10.0,South,5.8,-,N/A,,Clear,170,2013-10-31 15:15:00
11:35 AM,70.3,57.4,63,30.14,10.0,SSE,6.9,-,N/A,,Clear,160,2013-10-31 15:35:00
11:55 AM,70.7,57.0,62,30.13,10.0,South,5.8,-,N/A,,Clear,170,2013-10-31 15:55:00
12:15 PM,70.9,57.2,62,30.12,10.0,South,6.9,-,N/A,,Clear,190,2013-10-31 16:15:00
12:35 PM,71.2,57.2,61,30.11,10.0,South,6.9,-,N/A,,Clear,180,2013-10-31 16:35:00
12:55 PM,71.8,57.2,60,30.10,10.0,South,6.9,-,N/A,,Clear,190,2013-10-31 16:55:00
1:15 PM,72.5,57.7,60,30.10,10.0,SSW,5.8,-,N/A,,Clear,200,2013-10-31 17:15:00
1:35 PM,72.9,57.6,59,30.09,10.0,South,5.8,-,N/A,,Clear,180,2013-10-31 17:35:00
1:55 PM,73.2,57.9,59,30.07,10.0,South,4.6,-,N/A,,Clear,170,2013-10-31 17:55:00
2:15 PM,73.2,57.9,59,30.06,10.0,SSE,5.8,-,N/A,,Clear,160,2013-10-31 18:15:00
2:35 PM,73.4,58.1,59,30.05,10.0,SSE,4.6,-,N/A,,Clear,160,2013-10-31 18:35:00
2:55 PM,73.6,58.1,58,30.05,10.0,SSE,5.8,-,N/A,,Clear,160,2013-10-31 18:55:00
3:15 PM,74.3,58.1,57,30.04,10.0,South,5.8,-,N/A,,Scattered Clouds,170,2013-10-31 19:15:00
3:35 PM,74.5,56.5,53,30.03,10.0,South,9.2,-,N/A,,Scattered Clouds,180,2013-10-31 19:35:00
3:55 PM,74.3,56.3,53,30.03,10.0,South,6.9,-,N/A,,Clear,170,2013-10-31 19:55:00
4:15 PM,74.1,56.5,54,30.02,10.0,SSE,4.6,-,N/A,,Clear,160,2013-10-31 20:15:00
4:35 PM,73.8,56.7,55,30.01,10.0,SSE,5.8,-,N/A,,Clear,160,2013-10-31 20:35:00
4:55 PM,73.4,57.4,57,30.00,10.0,SSE,5.8,-,N/A,,Clear,160,2013-10-31 20:55:00
5:15 PM,72.5,57.6,59,29.99,10.0,SSE,4.6,-,N/A,,Clear,150,2013-10-31 21:15:00
5:35 PM,72.3,58.1,61,29.99,10.0,SSE,5.8,-,N/A,,Clear,160,2013-10-31 21:35:00
5:55 PM,70.9,58.3,64,29.99,10.0,SSE,3.5,-,N/A,,Clear,150,2013-10-31 21:55:00
6:15 PM,69.8,58.8,68,29.99,10.0,South,3.5,-,N/A,,Scattered Clouds,170,2013-10-31 22:15:00
6:35 PM,70.3,59.0,67,29.98,10.0,SSE,3.5,-,N/A,,Scattered Clouds,160,2013-10-31 22:35:00
6:55 PM,69.3,59.4,71,29.98,10.0,SSE,3.5,-,N/A,,Clear,160,2013-10-31 22:55:00
7:15 PM,69.4,59.9,72,29.98,10.0,SSE,3.5,-,N/A,,Clear,150,2013-10-31 23:15:00
7:35 PM,69.4,60.3,73,29.96,10.0,SE,5.8,-,N/A,,Clear,140,2013-10-31 23:35:00
7:55 PM,70.2,60.8,72,29.96,10.0,SSE,6.9,-,N/A,,Clear,150,2013-10-31 23:55:00
8:15 PM,70.5,61.3,73,29.96,10.0,South,6.9,-,N/A,,Clear,170,2013-11-01 00:15:00
8:35 PM,71.1,61.7,72,29.96,10.0,South,6.9,-,N/A,,Clear,170,2013-11-01 00:35:00
8:55 PM,71.6,61.7,71,29.95,10.0,South,9.2,16.1,N/A,,Clear,170,2013-11-01 00:55:00
9:15 PM,71.6,61.7,71,29.96,10.0,South,8.1,16.1,N/A,,Clear,180,2013-11-01 01:15:00
9:35 PM,71.8,61.2,69,29.96,10.0,South,8.1,-,N/A,,Clear,180,2013-11-01 01:35:00
9:55 PM,71.4,61.3,70,29.94,10.0,South,10.4,-,N/A,,Clear,170,2013-11-01 01:55:00
10:15 PM,71.1,61.7,72,29.95,10.0,South,6.9,-,N/A,,Clear,180,2013-11-01 02:15:00
10:35 PM,71.2,61.7,72,29.93,10.0,South,10.4,-,N/A,,Clear,170,2013-11-01 02:35:00
10:55 PM,71.2,61.9,72,29.94,10.0,South,10.4,-,N/A,,Clear,180,2013-11-01 02:55:00
11:15 PM,71.4,61.7,71,29.93,10.0,South,11.5,16.1,N/A,,Clear,170,2013-11-01 03:15:00
11:35 PM,71.4,61.2,70,29.92,10.0,South,10.4,16.1,N/A,,Scattered Clouds,170,2013-11-01 03:35:00
11:55 PM,71.6,60.8,69,29.92,10.0,South,10.4,-,N/A,,Scattered Clouds,190,2013-11-01 03:55:00